[[{"header":{"parameterUnit":"m.s-1","parameterCategory":1,"la1":30.2991,"la2":30.254,"lo1":-89.0895,"lo2":-89.0444,"dy":0.0017,"dx":0.0017,"nx":28,"ny":28,"refTime":"2025-11-21T03:00:00:Z","depth":0,"parameterNumber":2,"parameterNumberName":"U-component_of_WINDS"},"data":[0,0,0,0,0,0,0,0,0,0,0,0,0,0,0,0,0,0,0,0,0,0,0,0,0,0,0,0,0,0,0,0,0,0,0,0,0,0,0,0,0,0,0,0,0,0,0,0,0,0,0,0,0,0,0,0,0,0,0.9728,0.9729,0,0.978,0.9781,0.9782,0.9756,0.9755,0.9754,0.9752,0.981,0.9813,0.9815,0,0,0,0,0,0,0,0,0,0,0,0,0,0.9611,0.9614,0.9728,0.9729,0.973,0.978,0.9781,0.9782,0.9757,0.9755,0.9753,0.9752,0.9809,0.9812,0.9816,0,0,0,0,0,0,0,0,0,0,0,0,0,0.9663,0.9614,0.9728,0.9723,0.9723,0.978,0.9781,0.9782,0.9757,0.9755,0.9753,0.9751,0.9808,0.9812,0.9816,0.9883,0,0,0.9829,0.9831,0,0,0,0,0,0,0,0,0.966,0.9667,0.9723,0.9724,0.9724,0.976,0.9761,0.9816,0.9758,0.9744,0.9752,0.975,0.9795,0.98,0.9815,0.9885,0.9888,0.9829,0.9832,0.9834,0.9835,0,0,0,0,0,0,0,0.9656,0.9665,0.9749,0.9724,0.9724,0.972,0.9725,0.9771,0.9781,0.9745,0.9744,0.975,0.9795,0.9811,0.9816,0.9889,0.9829,0.9833,0.9836,0.9837,1.0018,1.0021,0,0,0,0,0,0,0.9652,0.9662,0.9747,0.9751,0.9686,0.9723,0.9729,0.975,0.978,0.9782,0.9752,0.9748,0.9805,0.9811,0.9818,0.9899,0.9834,0.9838,0.984,1.0016,1.0019,1.0021,0,0,0,0,0,0,0.965,0.966,0.9745,0.9706,0.9716,0.9727,0.9752,0.9752,0.9768,0.9785,0.9787,0.9766,0.9803,0.9812,0.9867,0.99,0.9839,0.9843,1.0013,1.0017,1.002,1.0061,0,0,0,0,0,0,0.9647,0.966,0.9684,0.9707,0.9718,0.9792,0.9754,0.9755,0.9775,0.9771,0.9798,0.9801,0.9802,0.9861,0.9871,0.9905,0.9847,1.001,1.0015,1.0019,1.0057,1.0065,1.0073,0,0,0,0,0,0.9643,0.9694,0.9685,0.9696,0.9749,0.9794,0.9801,0.98,0.9778,0.9803,0.9814,0.98,0.9895,0.9866,0.9878,0.9914,1.0008,1.0014,1.0019,1.0053,1.0063,1.0072,0,0,0,0,0,0,0.9676,0.9697,0.9687,0.9747,0.9769,0.979,0.9822,0.9811,0.9841,0.9837,0.9836,0.9842,0.99,0.9912,0.988,0.9981,0.9948,0.9956,0.997,0.9981,0.9989,0.9985,0.985,0,0,0,0,0,0.969,0.9723,0.974,0.9791,0.9803,0.981,0.983,0.9828,0.9851,0.986,0.9875,0.9899,0.9935,0.9958,0.9992,1.0058,1.0064,1.0088,1.0096,1.0103,1.011,1.0148,1.0159,1.0038,1.0038,1.0038,0,0,0.972,0.9735,0.9757,0.9798,0.9815,0.9852,0.9818,0.9858,0.9886,0.9867,0.992,0.9931,0.9959,1.002,1.0048,1.0032,1.0145,1.0109,1.0115,1.0118,1.0154,1.0166,1.0176,1.0042,1.0041,1.0041,0,0,0.9793,0.9807,0.9852,0.9869,0.9894,0.9899,0.991,0.9933,0.994,0.9992,0.9979,1.0013,1.0073,1.0094,1.0112,1.0194,1.0183,1.0205,1.0247,1.0284,1.0294,1.0302,1.0333,1.0344,1.0211,1.0211,1.0212,0,0.9827,0.988,0.9876,0.9918,0.9937,0.992,0.9967,0.9984,1.002,1.0035,1.0016,1.0092,1.0109,1.0176,1.0196,1.0211,1.0225,1.0202,1.0292,1.0301,1.0309,1.0338,1.0349,1.0214,1.0214,1.0213,1.0213,0,0.9922,0.9959,0.9992,1.0026,1.005,1.0093,1.0098,1.0122,1.0118,1.0125,1.018,1.02,1.0237,1.0253,1.0249,1.032,1.0309,1.0292,1.0259,1.0323,1.035,1.0362,1.0218,1.0217,1.0216,1.0215,0,0,1.0018,1.0049,1.0062,1.0077,1.0104,1.0134,1.0177,1.0213,1.0235,1.026,1.0298,1.035,1.0334,1.0355,1.0353,1.0385,1.0451,1.0364,1.0365,1.0381,1.0532,1.0546,1.0559,1.0443,1.0445,1.0447,1.053,0,1.0094,1.0169,1.0167,1.0238,1.0273,1.0258,1.0296,1.0318,1.0326,1.0359,1.0368,1.0405,1.0381,1.0393,1.0424,1.0436,1.0482,1.043,1.048,1.0482,1.0475,1.0573,1.0588,1.0665,1.0541,1.0542,1.0544,0,1.0193,1.0221,1.0295,1.0317,1.0332,1.0366,1.04,1.043,1.0455,1.0459,1.0483,1.0476,1.0523,1.0488,1.0553,1.0518,1.0538,1.0548,1.0551,1.0556,1.0518,1.0583,1.0689,1.0702,1.056,1.0559,1.0558,0,1.0258,1.0314,1.0365,1.0379,1.0407,1.0431,1.0444,1.0467,1.0489,1.0518,1.0533,1.0568,1.0588,1.0615,1.062,1.0594,1.0685,1.0651,1.0691,1.0692,1.0712,1.0711,1.0825,1.0723,1.0723,1.0723,1.0723,0,1.0344,1.0391,1.0395,1.0427,1.0479,1.0477,1.0529,1.054,1.056,1.0595,1.0584,1.0618,1.062,1.0655,1.0659,1.0713,1.0721,1.0727,1.0728,1.0729,1.0729,1.0743,1.0739,1.0726,1.0725,1.0725,1.0724,0,1.0426,1.0431,1.0486,1.0507,1.0514,1.0551,1.057,1.0602,1.0608,1.0653,1.0664,1.0675,1.0716,1.0722,1.077,1.0773,1.0838,1.0832,1.0829,1.0829,1.087,1.0866,1.0998,1.1016,1.0901,1.0902,1.0903,0,1.0482,1.0517,1.0542,1.0564,1.0578,1.0613,1.0635,1.0635,1.0659,1.0691,1.0719,1.0758,1.0789,1.0855,1.0869,1.0906,1.0902,1.0946,1.0908,1.0908,1.0905,1.0903,1.0908,1.0954,1.0955,1.0956,1.0957,0,1.058,1.0581,1.0612,1.0646,1.0672,1.0698,1.0723,1.0742,1.0746,1.0773,1.0814,1.0838,1.0887,1.0927,1.0964,1.0979,1.0969,1.0968,1.098,1.0982,1.098,1.0983,1.0851,1.0966,1.0965,1.0964,1.0964,1.0963,1.0652,1.0683,1.0705,1.0741,1.076,1.0783,1.0814,1.0825,1.0858,1.0897,1.0895,1.094,1.0966,1.1014,1.1031,1.1068,1.1054,1.107,1.1075,1.1079,1.1084,1.0973,1.1074,1.1074,1.1074,1.1074,1.1074,0,1.0751,1.0765,1.0798,1.0833,1.0862,1.0848,1.0875,1.0901,1.0941,1.0964,1.0995,1.1043,1.1081,1.1098,1.1136,1.1162,1.1159,1.1173,1.1172,1.1176,1.1094,1.108,1.1175,1.1175,1.1175,1.1175,1.1175,1.1175,1.0807,1.0859,1.0862,1.0924,1.0937,1.0981,1.0998,1.102,1.1039,1.1092,1.1124,1.1133,1.1155,1.1195,1.123,1.1234,1.125,1.1265,1.1268,1.1191,1.1181,1.1171,1.1159,1.1268,1.1269,1.1347,1.1348,1.1348]},{"header":{"parameterUnit":"m.s-1","parameterCategory":1,"la1":30.2991,"la2":30.254,"lo1":-89.0895,"lo2":-89.0444,"dy":0.0017,"dx":0.0017,"nx":28,"ny":28,"refTime":"2025-11-21T03:00:00:Z","depth":0,"parameterNumber":3,"parameterNumberName":"V-component_of_WINDS"},"data":[0,0,0,0,0,0,0,0,0,0,0,0,0,0,0,0,0,0,0,0,0,0,0,0,0,0,0,0,0,0,0,0,0,0,0,0,0,0,0,0,0,0,0,0,0,0,0,0,0,0,0,0,0,0,0,0,0,0,2.1626,2.1627,0,2.1697,2.1698,2.1699,2.1712,2.1711,2.1711,2.171,2.1778,2.178,2.1783,0,0,0,0,0,0,0,0,0,0,0,0,0,2.1496,2.1499,2.1626,2.1627,2.1628,2.1697,2.1698,2.1699,2.1712,2.1711,2.1711,2.171,2.1777,2.178,2.1783,0,0,0,0,0,0,0,0,0,0,0,0,0,2.1558,2.1499,2.1626,2.1643,2.1645,2.1697,2.1698,2.1699,2.1712,2.1711,2.1711,2.171,2.1776,2.178,2.1783,2.1821,0,0,2.1794,2.1795,0,0,0,0,0,0,0,0,2.1555,2.1563,2.164,2.1642,2.1645,2.1695,2.1677,2.174,2.1713,2.1687,2.171,2.1709,2.1751,2.1756,2.1771,2.1825,2.1827,2.1794,2.1796,2.1798,2.1799,0,0,0,0,0,0,0,2.155,2.156,2.1654,2.1641,2.1644,2.1645,2.1653,2.1689,2.1722,2.1689,2.169,2.1699,2.1752,2.1768,2.1773,2.1828,2.1794,2.1797,2.1799,2.1801,2.1914,2.1915,0,0,0,0,0,0,2.1544,2.1556,2.1652,2.1656,2.1597,2.1648,2.1657,2.168,2.1722,2.1728,2.1699,2.1699,2.1762,2.1769,2.1775,2.1822,2.1798,2.1801,2.1803,2.1913,2.1914,2.1915,0,0,0,0,0,0,2.1541,2.1552,2.1649,2.1607,2.1619,2.1651,2.1677,2.1681,2.1698,2.173,2.1735,2.171,2.1762,2.177,2.181,2.1824,2.1803,2.1806,2.1912,2.1913,2.1915,2.1915,0,0,0,0,0,0,2.1537,2.1551,2.1568,2.1607,2.1621,2.1684,2.1678,2.1683,2.1704,2.1704,2.1741,2.1747,2.1762,2.1804,2.1813,2.1829,2.1808,2.1911,2.1913,2.1914,2.1914,2.1916,2.1918,0,0,0,0,0,2.1533,2.1564,2.1569,2.158,2.1643,2.1685,2.1693,2.1712,2.1705,2.1721,2.1741,2.1745,2.1821,2.1808,2.1818,2.1835,2.191,2.1912,2.1914,2.1913,2.1916,2.1918,0,0,0,0,0,0,2.1525,2.157,2.1575,2.1621,2.1649,2.1687,2.1708,2.1714,2.1744,2.1743,2.1763,2.1771,2.1808,2.1826,2.181,2.1873,2.1865,2.1869,2.186,2.1864,2.1866,2.186,2.1811,0,0,0,0,0,2.1528,2.1561,2.1598,2.1634,2.1648,2.1676,2.1695,2.1706,2.1736,2.1747,2.1771,2.1798,2.1827,2.1846,2.1876,2.1916,2.1923,2.1932,2.1935,2.1936,2.1939,2.196,2.1964,2.1922,2.1922,2.1922,0,0,2.1536,2.1565,2.1584,2.1633,2.1657,2.1688,2.1686,2.1719,2.1741,2.1752,2.1791,2.1808,2.1839,2.1879,2.1898,2.1894,2.1952,2.1939,2.194,2.1942,2.1963,2.1966,2.197,2.1924,2.1923,2.1923,0,0,2.1566,2.1592,2.1624,2.1648,2.1683,2.1701,2.1709,2.1746,2.1758,2.1798,2.1806,2.1831,2.1883,2.1904,2.1922,2.1957,2.1961,2.1966,2.1978,2.1998,2.2001,2.2004,2.2015,2.2019,2.1969,2.1969,2.1969,0,2.157,2.1619,2.164,2.1673,2.1693,2.1705,2.1737,2.1758,2.1801,2.1814,2.181,2.1874,2.1895,2.1939,2.1948,2.1962,2.197,2.1962,2.1999,2.2002,2.2005,2.2016,2.202,2.197,2.197,2.197,2.197,0,2.1622,2.1655,2.1677,2.1719,2.1742,2.1774,2.1798,2.1818,2.1827,2.1844,2.1883,2.1909,2.1943,2.1955,2.1964,2.1999,2.1996,2.1995,2.1988,2.2009,2.202,2.2024,2.197,2.197,2.197,2.197,0,0,2.1649,2.1702,2.1709,2.1728,2.1767,2.1792,2.1824,2.1858,2.1875,2.1903,2.1928,2.1971,2.197,2.199,2.2001,2.2019,2.2043,2.2016,2.2017,2.2019,2.2082,2.2081,2.2086,2.2046,2.2047,2.2048,2.2079,0,2.1683,2.1741,2.176,2.1808,2.1837,2.1849,2.1876,2.1901,2.1918,2.1944,2.1961,2.199,2.1988,2.2,2.2018,2.2036,2.2056,2.2035,2.2068,2.2069,2.2059,2.2092,2.2092,2.212,2.2083,2.2084,2.2084,0,2.173,2.176,2.1811,2.1846,2.1859,2.1883,2.1915,2.1941,2.1969,2.1979,2.2001,2.2011,2.2041,2.2032,2.2073,2.2058,2.2073,2.2084,2.2085,2.2088,2.2077,2.2095,2.2129,2.2133,2.2091,2.2091,2.209,0,2.1743,2.1796,2.1834,2.1849,2.189,2.1907,2.1924,2.1952,2.1971,2.1998,2.201,2.2041,2.2057,2.2079,2.2095,2.2087,2.2134,2.2127,2.2142,2.2141,2.2151,2.215,2.2187,2.2162,2.2162,2.2162,2.2161,0,2.1778,2.1808,2.184,2.1863,2.1896,2.1916,2.1948,2.1966,2.199,2.2015,2.2026,2.2048,2.2069,2.2093,2.2106,2.2137,2.2145,2.2152,2.2155,2.2151,2.215,2.216,2.2158,2.2163,2.2162,2.2162,2.2162,0,2.1798,2.1821,2.1862,2.1897,2.1907,2.193,2.1959,2.198,2.1997,2.2028,2.2036,2.2061,2.2091,2.2109,2.2146,2.2155,2.2188,2.2191,2.2179,2.218,2.2194,2.2192,2.2239,2.2245,2.2216,2.2216,2.2216,0,2.1819,2.1842,2.1881,2.1899,2.1917,2.1946,2.1965,2.1985,2.2004,2.2038,2.2054,2.2084,2.211,2.2155,2.2176,2.2203,2.2206,2.2221,2.221,2.2205,2.2205,2.2203,2.2205,2.2222,2.2222,2.2222,2.2223,0,2.1852,2.1862,2.1891,2.1923,2.1946,2.1972,2.1998,2.2011,2.2035,2.2056,2.2087,2.2106,2.2144,2.2173,2.2202,2.2218,2.2223,2.2226,2.223,2.2226,2.2218,2.2221,2.2183,2.2224,2.2224,2.2224,2.2224,2.2224,2.1872,2.1893,2.1923,2.1954,2.1976,2.1999,2.2021,2.204,2.2067,2.21,2.2109,2.2141,2.2166,2.2207,2.2223,2.2246,2.2244,2.2251,2.2253,2.2254,2.2254,2.2215,2.2251,2.2251,2.2251,2.2251,2.2251,0,2.1905,2.1925,2.1954,2.199,2.2013,2.2018,2.2046,2.2065,2.2093,2.2118,2.2142,2.2176,2.2204,2.2226,2.2255,2.2269,2.2272,2.2275,2.2274,2.2277,2.2255,2.2247,2.2272,2.2272,2.2272,2.2272,2.2272,2.2272,2.1925,2.1961,2.1974,2.2019,2.2038,2.207,2.2085,2.2106,2.2126,2.2164,2.2188,2.2202,2.2225,2.2255,2.228,2.2285,2.2294,2.2297,2.2303,2.2281,2.2279,2.2277,2.227,2.2299,2.2299,2.2324,2.2324,2.2324]}]]